Location: Cluj-Napoca
(46.7712°N, 23.6236°E)
Time: 12:19:32
(UTC+03:00)

ISS - Pass Details

Date: 06 May 2021
Orbit: 417 x 422 km, 51.6° (Epoch: 15 May)

Event Time Altitude Azimuth Distance (km) Brightness Sun altitude
Exits shadow 03:48:18 35° 291° (WNW) 694 -2.8 -18.7°
Maximum altitude 03:49:18 50° 342° (NNW) 544 -3.0 -18.6°
Drops below altitude 10° 03:52:37 10° 60° (ENE) 1,508 0.1 -18.2°
Sets 03:54:46 0° 66° (ENE) 2,375 1.2 -18.0°
